{"data":{"norad_id":56297,"epoch":"2026-05-25T00:49:34.496256Z","epoch_age_seconds":72380,"freshness":"FRESH","line1":"1 56297U 23056M   26145.03442704  .00002158  00000+0  87969-4 0  9995","line2":"2 56297  43.0058 137.8775 0001265 264.1735  95.8973 15.27568118171713","mean_motion":15.27568118,"eccentricity":0.0001265,"inclination_deg":43.0058,"raan_deg":137.8775,"arg_perigee_deg":264.1735,"mean_anomaly_deg":95.8973,"bstar":8.7969e-5,"rev_number":17171,"period_min":94.267481955918,"perigee_km":482.21673071088,"apogee_km":483.95261979472,"semimajor_km":6861.2216752528,"source":"CELESTRAK","updated_at":"2026-05-25T13:38:17.966342Z"}}